FENGYUN 1C DEB, 30984

Orbit data source: Space-Track

FENGYUN 1C DEB, 30984 is space debris in SSO originally from a launch on Mon, 10 May 1999 UTC launched from the Taiyaun Space Center, China (TSC). Fengyun 1C debris stems from the Chinese weather satellite Fengyun-1C, which was intentionally destroyed by a Chinese anti-satellite missile in 2007. This event dramatically increased the amount of space debris, with thousands of trackable fragments posing hazards to satellites and human spaceflight. The Fengyun 1C debris cloud has become a focal point in discussions about space sustainability and the need for international regulations to prevent the creation of new debris.

Loading next visibility...
Identifier
30984, 1999-025BCA
Orbit
SSO
Country
Flag of CNCN / PRC
Related business
Manufacturer
Unknown
Mission
Spacecraft
Bus & Motor
Unknown
Mass
Unknown
Launch date (UTC)
1999-05-10 (27 years ago)
Launch vehicle
Unknown
Launch site
Taiyaun Space Center, China (TSC)
Object type
Payload
Rocket body
Debris
Shape & HBR
Unknown shape, 0.1 m
Radar Cross Section
Small (<0.1 m²)

Expand to show TLE details & history
Last TLE update: 13 hours ago

TLE from 13 hours ago
0 FENGYUN 1C DEB
1 30984U 99025BCA 26122.86150844  .00002209  00000-0  51261-3 0  9999
2 30984  98.2441 161.6166 0123864 294.6260  64.2074 14.51427701972108
Epoch: 2026-05-02T20:40Z
TLE epoch observation values (Epoch: 2026-05-02T20:40:34.329Z)
Latitude
Longitude
-9.29977°
Altitude
686.584 km
Speed
7.533 km/s
True Right ascension
10h 46m 27s
True Declination
0° 00' 00"
Sunlit
Object was in full shadow at epoch
Visualization orbit readout
Latitude
Unknown
Longitude
Unknown
Altitude
Unknown
Speed
Unknown
Apparent Right ascension
Unknown
Apparent Declination
Unknown
Sunlit
N/A
Visualization observer readout
Local Sidereal Time
17:10:07
Azimuth
Unknown
Elevation
Unknown
Doppler factor
Unknown
Orbital elements
Apogee altitude
805.98 km
Perigee altitude
630.187 km
Semi-major axis
7,096.22 km
Eccentricity
0.01239
Inclination
98.2441°
RAAN
161.6166°
Arg. of periapsis
294.626°
True anomaly
65.49393°
Mean anomaly
64.2074°
Eccentric anomaly
64.84981°
Mean motion
3.6308 °/min
Orbital period
99.15 mins
BSTAR
0.00051261
Loading maneuver chart data...
Computing Atmospheric mass density...

Documentation

Showing up to 5 results
|